Weather Roundup
Issued by NWS Chicago, IL

Home | Current Version | Previous Version | Text Only | Print | Product List | Glossary Off
Versions: 1 2 3 4 5 6 7 8 9 10 11 12 13 14 15 16 17 18 19 20 21 22 23 24 25 26 27 28 29 30 31 32 33 34 35 36 37 38 39 40 41 42 43 44 45 46 47 48 49 50

000
NZUS59 KLOT 072121
HRRLOT

CHICAGO AREA WEATHER ROUNDUP
NATIONAL WEATHER SERVICE CHICAGO/ROMEOVILLE IL
400 PM CDT TUE JUL 07 2015

NOTE: "FAIR" INDICATES FEW OR NO CLOUDS BELOW 12,000 FEET WITH NO
SIGNIFICANT WEATHER AND/OR OBSTRUCTIONS TO VISIBILITY.

* THESE STATIONS ARE NOT UNDER NWS QUALITY CONTROL. THEY ALSO MAY NOT
  REPORT WEATHER SUCH AS PRECIPITATION OR FOG.

ILZ005-006-012>014-019>023-072200-
NORTHEAST ILLINOIS

CITY           SKY/WX    TMP DP  RH WIND       PRES   REMARKS
OHARE          MOSUNNY   66  47  50 NE17      30.05R
MIDWAY         MOSUNNY   67  46  47 NE18G25   30.04S
AURORA         CLOUDY    70  53  54 N9        30.04R
LANSING*       SUNNY     65  44  47 NE15G26   30.04S
JOLIET*        SUNNY     71  53  53 NE9       30.03R
WAUKEGAN       SUNNY     62  46  55 N15G22    30.06R
DUPAGE AIRPORT CLOUDY    68  50  52 E14       30.04R
WHEELING       SUNNY     64  46  52 NE13      30.07R
KANKAKEE*      MOSUNNY   67  51  57 NE16G25   30.04S
MORRIS*        CLOUDY    70  53  55 E6        30.01S
LEWIS AIRPORT* SUNNY     68  49  50 NE13      30.04R
NORTHERLY IS     N/A     62  49  62 N14         N/A
$$

WIZ051-052-058>065-066-070>072-072200-
SOUTHEAST WISCONSIN

CITY           SKY/WX    TMP DP  RH WIND       PRES   REMARKS
MILWAUKEE      MOSUNNY   62  50  64 NE14      30.07R
KENOSHA*       MOSUNNY   66  51  58 NE13      30.06R
RACINE*        MOSUNNY   64  50  60 NE12      30.08R
BURLINGTON     PTSUNNY   69  49  49 N10       30.05S
WAUKESHA       PTSUNNY   66  48  52 NW12      30.07R
WEST BEND      CLOUDY    66  46  48 N9        30.06R
$$

INZ001>003-010>013-019-020-072200-
NORTHWEST INDIANA

CITY           SKY/WX    TMP DP  RH WIND       PRES   REMARKS
GARY*          MOSUNNY   64  50  59 N17G29    30.05S
MICHIGAN CITY* NOT AVBL
RENSSELAER*    NOT AVBL
VALPARAISO     SUNNY     65  47  52 N17G29    30.03S
$$

LMZ740>746-072200-
SOUTHERN LAKE MICHIGAN

STATION/POSITION TIME  SKY/WX   TEMP WIND        PRES    VSBY
                                AIR  DIR/SP/G
                 (UTC)          (F)  (DEG/KT/KT) (MB)    (MI)
HARRISON CRIB    2100            58   20/ 19/ 22   N/A
BURNHAM HARBOR   2100            62   10/ 13/ 15   N/A
CALUMET HARBOR   2000            62  360/ 13/ 16   N/A
BURNS HARBOR     2000            60   20/ 19/ 22 1017.6R
MICHIGAN CITY    2100            61  350/ 24/ 27   N/A
$$

ABBREVIATIONS USED IN REMARKS
   TC - TEMPERATURE IN CELSIUS
  WCI - WIND CHILL INDEX
   HX - HEAT INDEX
  VSB - VISIBILITY
$$



USA.gov is the U.S. government's official web portal to all federal, state and local government web resources and services.